{"data":{"norad_id":67540,"intl_designator":"2026-014J","name":"STARLINK-36585","alt_names":[],"object_type":"PAYLOAD","status":"ACTIVE","operator":null,"country":"US","launch_date":"2026-01-22","launch_site_code":"AFWTR","launch_vehicle":null,"mission":null,"orbit_class":"UNKNOWN","rcs_meters":null,"size_class":null,"mass_kg":null,"dimensions":null,"purposes":["comms"],"wikipedia_slug":null,"has_3d_model":false,"image_url":null,"decayed_at":null,"tle_current":{"epoch":"2026-05-25T03:50:44.696256Z","epoch_age_seconds":54564,"freshness":"FRESH","line1":"1 67540U 26014J   26145.16023954  .00021406  00000+0  66332-3 0  9998","line2":"2 67540  97.2863  32.2185 0001799  88.3264 271.8185 15.33453458 20507","mean_motion":15.33453458,"eccentricity":0.0001799,"inclination_deg":97.2863,"raan_deg":32.2185,"arg_perigee_deg":88.3264,"mean_anomaly_deg":271.8185,"bstar":0.00066332,"rev_number":2050,"period_min":93.905686702622,"perigee_km":464.28683600029,"apogee_km":466.74918307272,"semimajor_km":6843.6550095365,"source":"CELESTRAK","updated_at":"2026-05-25T13:38:21.608253Z"}}}